Flag for Canada Weather past 2 weeks in Hay River, Northwest Territories, Canada

Now
57 °F

Passing clouds.


Feels Like: 56 °F
Forecast: 40 / 60 °F
Wind: 7 mph from Northeast

Location: Hay River

Current Time: Aug 20, 2014 at 8:23:35 PM

Latest Report: Aug 20, 2014 at 7:00 PM


Visibility: 15 mi

Pressure: 30.08 "Hg

Humidity: 39%

Dew point: 32 °F

Location of Hay RiverLocation

Historic Weather in Hay River — Graph

°F

Hay River temperature yesterday

Maximum temperature yesterday: 55 °F (at 12:00 AM)
Minimum temperature yesterday: 50 °F (at 8:00 AM)
Average temperature yesterday: 52 °F

Past Weeks' High & Low Weather Summary

 TemperatureHumidityPressure
High90 °F (Aug 5, 7:00 PM)100% (Aug 7, 7:00 AM)30.13 "Hg (Aug 7, 7:00 AM)
Low43 °F (Aug 9, 4:00 AM)22% (Aug 5, 7:00 PM)29.51 "Hg (Aug 18, 2:00 PM)
Average61 °F75%29.84 "Hg
* Reported Aug 5 7:00 PM — Aug 20 7:00 PM, Hay River, Weather by CustomWeather, © 2014

Note: Actual official high and low records may vary slightly from our data, if they occured in-between our weather recording intervals... More about our weather records

Advertising

Hay River weather history for previous 24 hours

 ConditionsComfort  
Time TempWeatherWind HumidityBarometerVisibility
7:00 PM
Aug 20
57 °FPassing clouds.7 mph39%30.08 "Hg15 mi
6:00 PM59 °FPassing clouds.5 mph45%30.07 "Hg15 mi
5:00 PM57 °FPassing clouds.7 mph55%30.06 "Hg15 mi
4:00 PM57 °FPassing clouds.5 mph55%30.04 "Hg10 mi
3:00 PM59 °FScattered clouds.6 mph55%30.03 "Hg10 mi
2:00 PM55 °FScattered clouds.7 mph67%30.03 "Hg15 mi
1:00 PM57 °FBroken clouds.7 mph63%30.02 "Hg15 mi
12:00 PM55 °FScattered clouds.8 mph67%30.00 "Hg15 mi
11:00 AM55 °FScattered clouds.7 mph67%29.99 "Hg15 mi
10:00 AM54 °FScattered clouds.6 mph67%29.98 "Hg15 mi
9:00 AM50 °FPartly sunny.6 mph82%29.96 "Hg12 mi
8:00 AM52 °FBroken clouds.2 mph67%29.95 "Hg15 mi
7:00 AM52 °FPartly cloudy.6 mph72%29.93 "Hg15 mi
6:00 AM52 °FPassing clouds.3 mph72%29.92 "Hg15 mi
5:00 AM52 °FPassing clouds.6 mph77%29.90 "Hg15 mi
4:00 AM50 °FPassing clouds.5 mph82%29.89 "Hg15 mi
3:00 AM50 °FPassing clouds.No wind82%29.88 "Hg15 mi
2:00 AM50 °FOvercast.5 mph76%29.87 "Hg15 mi
1:00 AM50 °FOvercast.3 mph82%29.86 "Hg15 mi
12:00 AM50 °FOvercast.6 mph88%29.85 "Hg15 mi
11:00 PM
Aug 19
52 °FOvercast.6 mph82%29.84 "Hg15 mi
10:00 PM52 °FOvercast.8 mph77%29.84 "Hg15 mi
9:00 PM52 °FOvercast.8 mph77%29.83 "Hg15 mi
8:00 PM52 °FOvercast.6 mph77%29.82 "Hg15 mi
Weather by CustomWeather, © 2014

See weather overviewHow to use our weather pages